Location: Hamilton
(37.7830°S, 175.2830°E)
Time: 23:32:56
(UTC+12:00)

Daily predictions for brighter satellites

Satellite Brightness Start Highest point End
(mag) Time Altitude Azimuth Time Altitude Azimuth Time Altitude Azimuth
COSMOS 2428 2.8 17:38:47 10° NNW 17:44:30 89° WSW 17:50:17 10° SSE
Cosmos 1354 Rocket 4.5 17:44:17 10° S 17:49:15 39° ESE 17:54:10 10° NE
Cosmos 2360 Rocket 4.2 17:46:04 10° WNW 17:50:38 25° WSW 17:55:17 10° S
Cosmos 2219 Rocket 2.7 17:45:05 10° NNW 17:50:40 64° WSW 17:56:16 10° SSE
Lacrosse 5 3.8 17:49:50 10° S 17:52:20 13° SSE 17:54:50 10° SE
Cosmos 1953 Rocket 4.0 17:47:56 10° NNW 17:52:23 72° W 17:56:56 10° S
Nadezhda 4 Rocket 4.1 17:46:44 10° N 17:52:52 83° W 17:59:08 10° S
Cosmos 1092 Rocket 4.1 17:47:41 10° N 17:53:44 58° E 17:59:55 10° SSE
USA 276 2.8 17:51:14 10° SW 17:54:18 38° SSE 17:57:20 10° ENE
H-2A R/B 4.3 17:57:31 10° E 17:57:44 10° E 17:57:57 10° E
Cosmos 2058 2.9 17:54:58 10° N 17:59:01 59° E 18:03:10 10° SSE
IRIDIUM 114 4.5 17:54:21 10° S 17:59:34 55° E 18:04:42 10° NNE
Meteor 2-8 Rocket 4.5 17:55:49 10° S 18:02:04 70° E 18:08:11 10° NNE
SMAP 3.8 17:58:41 10° SSE 18:02:58 33° E 18:07:10 10° NNE
Atlas Centaur 2 3.2 17:57:59 10° WNW 18:02:59 41° N 18:09:17 10° ENE
Cosmos 2026 Rocket 4.2 17:57:23 10° NNE 18:03:36 55° E 18:09:51 10° SSE
COSMO-SKYMED 1 3.8 17:59:29 10° N 18:03:42 47° W 18:07:59 10° SSW
Cosmos 1486 Rocket 4.4 17:59:21 10° SSW 18:04:39 71° WNW 18:09:55 10° N
CSL-04 DEB 4.3 18:00:54 10° NNE 18:04:47 64° ESE 18:08:45 10° S
CZ-2C R/B 2.8 18:00:06 10° NNE 18:05:38 60° ESE 18:11:13 10° S
H-2A R/B 3.8 18:01:53 10° NNW 18:05:43 35° W 18:09:35 10° SSW
IRIDIUM 103 4.3 18:03:25 10° S 18:08:43 68° E 18:13:55 10° N
Cosmos 1825 2.2 18:05:17 10° N 18:09:05 83° WSW 18:12:55 10° S
USA 234 3.6 18:03:53 10° SE 18:10:27 68° SW 18:16:58 10° WNW
Cosmos 1408 4.2 18:09:07 10° NNW 18:12:36 38° W 18:16:09 10° S
Cosmos 1980 3.7 18:09:08 10° N 18:14:44 63° ENE 18:20:22 10° SSE
Cosmos 405 Rocket 2.6 18:11:05 10° N 18:14:46 70° E 18:18:36 10° SSE
Cosmos 1842 Rocket 3.6 18:11:05 10° S 18:15:32 58° E 18:19:57 10° NNE
NOAA 6 4.0 18:14:55 10° SSE 18:20:05 65° ENE 18:25:11 10° N
Envisat 3.9 18:15:09 10° S 18:20:09 52° WSW 18:25:05 10° NNW
FengYun 1-2 T 4.5 18:17:11 10° SSE 18:22:34 46° E 18:27:49 10° N
Radarsat Rocket 4.2 18:16:54 10° SSE 18:22:43 45° E 18:28:16 10° N
Cosmos 1356 3.6 18:21:02 10° NNW 18:24:27 71° W 18:27:55 10° S
SL-16 R/B 3.3 18:22:19 10° NNE 18:26:43 24° E 18:28:39 20° ESE
IRIDIUM 106 4.5 18:21:44 10° S 18:27:03 81° W 18:32:17 10° N
Cosmos 1437 Rocket 3.0 18:25:00 10° S 18:28:38 40° ESE 18:32:13 10° NNE
CZ-4B R/B 3.1 18:26:42 10° NNW 18:29:31 34° W 18:32:24 10° SSW
MOS 1-B 4.4 18:24:24 10° SSE 18:30:11 57° ENE 18:35:54 10° N
Cosmos 2221 2.5 18:26:43 10° S 18:31:05 89° WNW 18:35:22 10° N
CZ-4B DEB 4.1 18:25:41 10° SSE 18:31:14 74° ENE 18:36:41 10° N
Cosmos 1689 Rocket 2.0 18:31:56 10° NNE 18:34:43 54° ESE 18:37:35 10° S
SL-8 R/B 4.2 18:30:42 10° WNW 18:35:29 56° SSW 18:38:38 21° SE
Cosmos 1606 2.8 18:31:58 10° S 18:35:42 48° E 18:39:22 10° NNE
USA 102 4.1 18:30:05 10° NE 18:36:48 44° E 18:38:00 37° SE
ATLAS 3B R/B 3.2 18:29:53 10° NW 18:37:23 70° SW 18:44:47 10° SSE
Meteor 2-15 Rocket 4.4 18:36:58 10° S 18:43:10 86° E 18:49:16 10° N
Cosmos 2333 Rocket 4.4 18:39:08 10° WNW 18:43:23 21° SW 18:47:41 10° S
Cosmos 1076 Rocket 3.7 18:44:45 10° NNW 18:49:01 73° W 18:53:23 10° S
Cosmos 1461 4.0 18:47:04 10° S 18:50:15 28° SE 18:50:15 28° SE
Cosmos 1553 Rocket 3.9 18:47:16 10° S 18:53:23 66° E 18:59:26 10° NNE
Cosmos 1777 Rocket 3.9 18:49:09 10° SSW 18:54:29 72° ESE 18:59:42 10° NNE
Cosmos 2237 Rocket 2.7 18:51:28 10° NW 18:57:04 61° WSW 19:02:46 10° SSE
H-2A R/B 3.7 19:00:07 17° NE 19:00:07 17° NE 19:01:29 10° NNE
Cosmos 1809 Rocket 4.4 18:55:08 10° N 19:01:21 80° E 19:07:36 10° S
Cosmos 2151 2.8 18:58:40 10° N 19:02:53 85° E 19:05:43 21° S
CZ-2C R/B 2.7 18:59:03 12° SSE 19:03:31 76° ENE 19:08:17 10° N
CORIOLIS 4.3 18:59:11 10° S 19:04:41 75° WSW 19:10:08 10° NNW
ERS-2 2.1 19:01:34 10° N 19:05:13 82° WNW 19:08:58 10° SSW
CZ-2D R/B 3.5 19:08:10 53° NNE 19:08:10 53° NNE 19:11:22 10° N
Cosmos 1417 Rocket 4.4 19:01:41 10° S 19:08:07 74° E 19:14:26 10° NNE
Okean O Rocket 1.5 19:06:03 24° SSE 19:08:46 85° ENE 19:13:15 10° NNW
SJ 16-02 2.8 19:04:33 10° S 19:06:30 23° SSE 19:06:30 23° SSE
Cosmos 1633 3.4 19:08:47 10° NNW 19:12:15 50° W 19:14:15 23° SSW
Cosmos 1943 Rocket 3.9 19:14:04 10° S 19:15:55 18° SSE 19:15:55 18° SSE
Cosmos 1655 Rocket 3.9 19:13:20 10° N 19:19:38 79° E 19:26:04 10° S
Cosmos 2278 Rocket 3.0 19:18:33 10° SSW 19:24:04 51° WNW 19:29:33 10° N
Meteor 2-3 Rocket 3.6 19:19:49 10° N 19:25:26 90° SW 19:29:42 19° S
Cosmos 1939 Rocket 4.2 19:23:02 11° S 19:26:45 40° WSW 19:30:39 10° NW
CZ-4B R/B 3.6 19:25:19 10° S 19:30:36 59° WSW 19:35:48 10° NNW
Meteor 2-16 Rocket 4.3 19:25:42 10° N 19:31:47 75° E 19:33:54 43° SSE
H-2A R/B 3.2 19:33:35 48° W 19:33:35 48° W 19:37:11 10° NNW
Lacrosse 5 2.9 19:31:30 10° SSW 19:34:45 34° S 19:34:45 34° S
Meteor 2-21 Rocket 4.5 19:32:02 10° N 19:38:16 81° W 19:44:35 10° S
Atlas Centaur 2 3.5 19:46:13 10° WNW 19:51:51 36° N 19:52:48 35° N
SL-16 R/B 3.1 20:05:06 10° NW 20:10:29 44° WSW 20:10:35 44° WSW
